Terminal Aerodrome Forecast
Issued by NWS

Home | Current Version | Previous Version | Text Only | Print | Product List | Glossary On
Versions: 1 2 3 4 5 6 7 8 9 10 11 12 13 14 15 16 17 18 19
000
FTUS44 KLZK 280500
TAFHOT
TAF
KHOT 280521Z 2806/0106 08006KT P6SM OVC050
      TEMPO 2812/2816 OVC025
     FM282000 09007KT P6SM VCSH OVC030
     FM010100 08005KT P6SM OVC040=

USA.gov is the U.S. government's official web portal to all federal, state and local government web resources and services.